Atlantic - Newfoundland: Past 24 Hour Conditions

 

Natashquan Airport

02:00 PM EDT 23 July 2014
This table is a summary of hourly weather conditions for the past 24 hours.
Date / Time
(EDT)
Wind(knots) Conditions Visibility(km) Pressure(kPa) Air tempC) Relative humidity(%) Dew pointC) Humidex
23 July 2014
14:00 SSW 14 gust 20 Sunny 16 99.9 26 62 18 32
13:00 SSW 17 gust 26 Sunny 16 99.9 25 63 18 31
12:00 S 13 gust 21 Sunny 16 100.0 27 59 18 33
11:00 SSE 13 Sunny 16 100.1 28 58 19 34
10:00 S 5 Sunny 16 100.2 26 58 18 32
9:00 SW 4 Sunny 16 100.3 24 66 18 30
8:00 SW 5 Sunny 16 100.3 23 72 17 28
7:00 SSE 6 Sunny 16 100.3 20 78 17 25
6:00 SSE 4 Mainly Sunny 13 100.4 17 93 16 *
5:00 NNE 2 Cloudy 16 100.4 16 92 15 *
4:00 WSW 3 Clear 16 100.5 15 94 14 *
3:00 WNW 5 Clear 16 100.5 17 90 15 *
2:00 WSW 5 Clear 16 100.5 17 92 16 *
1:00 WSW 8 Clear 16 100.6 18 89 16 *
0:00 WSW 7 Clear 16 100.6 19 88 17 *
22 July 2014
23:00 WSW 8 Partly Cloudy 16 100.6 19 87 17 *
22:00 WSW 7 Mainly Clear 16 100.6 19 87 17 *
21:00 SW 5 Cloudy 16 100.7 18 89 17 *
20:00 WSW 2 Cloudy 16 100.7 18 87 16 *
19:00 SW 5 Cloudy 16 100.7 19 83 16 *
18:00 WSW 8 Cloudy 16 100.8 19 81 16 *
17:00 WSW 8 Cloudy 16 100.9 19 80 16 *
16:00 SW 9 Partly Cloudy 16 100.8 20 76 16 *
15:00 WSW 8 Mainly Sunny 16 101.0 21 72 16 26
14:00 SW 8 N/A 16 101.0 23 61 16 27
 
Map of Atlantic - Newfoundland marine weather areas Southwestern Grand Banks - 44138 Banquereau - 44139 Tail of the Bank - 44140 Nickerson Bank - 44251 Northeast Burgeo Bank - 44255 Blanc-Sablon Airport Cap Whittle Chevery Natashquan Airport Heath Point Miscou Island Grand Étang Ingonish Beach North Mountain St.Paul Island J.A. Douglas McCurdy Sydney Airport Charlottetown Airport East Point North Cape Argentia Bonavista Burgeo Cape Race Corner Brook Daniel's Harbour Englee Ferolle Point La Scie Port aux Basques Rocky Harbour Sagona Island St. Anthony Airport St. John's Int'l Airport St. Lawrence Stephenville Airport Twillingate Winterland Wreckhouse Cartwright Airport Mary's Harbour Grates Cove Pool's Island Marticot Island Long Pond Îles de la Madeleine Airport
Legend: buoyBuoy land stationLand Station